Время (UTC), дата Ветер
(°,м/с) 
Видим.   Явления Облачность Т
(°С)
Тd
(°С)
f(%) Тe
(°С)
Pmin
(гПа)
dP
(гПа)
Po
(мм)
O2
(г/м3)
Тmin Tmax R s Состояние
почвы
00 01.11.12 070 (В) >10 км    10/4 1000 м средняя 
[Sc|Ac und]
+8.7 +1.2 59 +8  1024.5  -0.2  728  284           
03 01.11.12 070 (В) >10 км    10/5 1000 м средняя 
[Sc|Ac und]
+8.3 +0.1 56 +7  1024.3  -0.3  728  284  +8.2        сухая 
06 01.11.12 060 (СВ) >10 км    10/4 1500 м средняя 
[Sc|Ac und]
+8.8 +2.1 63 +8  1024.7  0.4  728  284           
09 01.11.12 080 (В) 10 км  слаб. дождь  10/8 800 м средняя 
[Sc|Ac und]
+6.1 +4.1 87 +5  1024.8  -0.8  728  286           
12 01.11.12 040 (СВ) 10 км  в посл. час дождь  10/10 180 м 
[Frnb|Ns]
+5.9 +5.1 95 +4  1024.8  728  286           
15 01.11.12 070 (В) 10 км  {дождь}  10/10 240 м 
[St]
+5.2 +4.5 95 +4  1024.9  728  287    +8.3     
18 01.11.12 090 (В) >10 км    10/6 600 м средняя 
[Sc|Ac und]
+5.1 +4 93 +3  1025.1  0.1  728  287           
21 01.11.12 080 (В) 4000 м  дымка  10/10 210 м 
[St]
+5 +4.4 96 +3  1024.9  0.1  728  287           
00 02.11.12 090 (В) 0400 м  туман  ?/?  
+4.6 +4.2 97 +2  1024  -0.9  727  287           
03 02.11.12 080 (В) 0400 м  туман  ?/?  
+3.5 +3.2 98 +1  1024.3  727  289  +3.5        влажная 
06 02.11.12 090 (В) 0200 м  туман  ?/?  
+4.5 +4.1 97 +2  1023.8  -0.2  727  287  +3.5         
09 02.11.12 080 (В) 0300 м  туман  ?/?  
+5.4 +5.1 98 +3  1023  -0.6  726  286           
12 02.11.12 080 (В) 8-10{10}  0200 м  туман  ?/?  
+5.5 +5.2 98 +2  1022  -0.9  726  286           
15 02.11.12 100 (В) 7{10}  0200 м  туман  ?/?  
+5.4 +5.1 98 +3  1021.8  -0.2  725  286    +5.6       
18 02.11.12 110 (В) 7-10{12}  0200 м  туман  ?/?  
+5.2 +4.9 98 +2  1021.2  -0.7  725  286           
21 02.11.12 100 (В) 6{11}  4000 м  дымка{туман}  10/10 120 м 
[St]
+5.6 +5.3 98 +3  1020.3  -0.7  724  285           
00 03.11.12 100 (В) 6{10}  4000 м  дымка{туман}  10/10 150 м 
[St]
+6.4 +6.1 98 +4  1019.6  -0.5  724  284           
03 03.11.12 120 (ЮВ) 8-11{11}  >10 км    10/10 200 м 
[St]
+7.1 +6.9 99 +4  1019.3  -0.2  724  283  +4.9        влажная 
06 03.11.12 130 (ЮВ) 11-16{16}  >10 км    10/8 330 м средняя 
[St|Ac und]
+8.2 +7.7 97 +5  1019.1  724  282           
09 03.11.12 130 (ЮВ) 10-14{16}  >10 км    10/8 400 м средняя 
[Sc|Ac und]
+10.1 +7.5 84 +8  1017.9  -0.8  723  280           
12 03.11.12 130 (ЮВ) 10-13{14}  >10 км    9/8 450 м средняя 
[Sc|Ac trans]
+10.9 +7.9 82 +9  1017.1  -0.8  723  279           
15 03.11.12 140 (ЮВ) >10 км    10/8 300 м средняя 
[St|Ac und]
+9.1 +8 93 +7  1017.6  -0.1  723  280    +11.8       
18 03.11.12 140 (ЮВ) 6{12}  >10 км    6/3 300 м средняя 
[Sc|Ac trans]
+8.2 +7.3 94 +6  1016.9  -0.8  722  281           
21 03.11.12 140 (ЮВ) >10 км    8/4 60 м средняя 
[Sc|Ac trans]
+8.7 +7 89 +9  1017.9  723  281        598  мокрый или
старый снег
10-40% 
00 04.11.12 050 (СВ) >10 км  слаб. ливневой дождь  10/6 700 м кучево-дожд., средняя 
[Cb cap|Ac und]
+9 +7.9 93 +10  1018  0.2  723  281           
03 04.11.12 240 (ЮЗ) >10 км  {ливн. осадки}  10/6 480 м кучево-дожд., средняя 
[Cb calv|Ac und]
+12.6 +10 84 +14  1018.5  1.1  724  277  +7.9    0.0    влажная 
06 04.11.12 260 (З) 6{10}  1500 м  слаб. морось{ливн. осадки}  10/10 120 м 
[St]
+11.4 +10.9 97 +13  1020.1  1.3  725  278           
09 04.11.12 270 (З) 0500 м  слаб. морось{туман}  ?/?  
+10.7 +10.3 97 +12  1021.4  1.1  726  279           
12 04.11.12 270 (З) 2000 м  слаб. морось{туман}  10/10 240 м 
[St]
+10 +9.6 97 +10  1021.8  0.3  726  280           
15 04.11.12 230 (ЮЗ) 10 км    10/10 150 м 
[St]
+9.6 +9 96 +10  1022.3  0.4  726  281    +12.5  0.0     
18 04.11.12 320 (СЗ) 3000 м  дымка  10/10 210 м 
[St]
+9.2 +8.6 96 +10  1022.3  0.1  726  282           
21 04.11.12 030 (СВ) 3000 м  слаб. морось  10/10 120 м 
[St]
+8.3 +7.8 97 +9  1022  -0.5  726  282           
00 05.11.12 140 (ЮВ) 2000 м  дымка{морось}  10/10 150 м 
[St]
+8.7 +8.3 97 +10  1021.3  -0.5  726  282           
03 05.11.12 140 (ЮВ) 0600 м  туман  ?/? 50 
+8.9 +8.6 98 +9  1020.7  -0.6  725  281  +8.2    0.0    влажная 
06 05.11.12 160 (Ю) 4000 м  дымка{туман}  10/10 120 м 
[St]
+10.2 +9.9 98 +12  1020.6  0.2  725  280           
09 05.11.12 140 (ЮВ) >10 км    8/8 300 м 
[Sc]
+14.3 +10.1 76 +16  1019.2  -0.6  725  276  -80.6      597  мокрый или
старый снег
50-90% 
12 05.11.12 120 (ЮВ) >10 км    3/0 верхняя 
[Ci fib]
+16.3 +9.9 66 +18  1017.7  -1.1  724  273           
15 05.11.12 120 (ЮВ) 10 км    3/0 верхняя 
[Ci fib]
+11.8 +9.4 85 +12  1018.5  724  278    +16.3       
18 05.11.12 130 (ЮВ) >10 км    ясно 
+9.5 +8.8 95 +9  1018.4  -0.5  724  280           
21 05.11.12 150 (ЮВ) 10 км    ясно 
+9.1 +8.3 95 +8  1017.2  -1.3  723  280           
00 06.11.12 140 (ЮВ) 10 км    ясно 
+8.7 +8.1 96 +7  1015.6  -1.6  721  280           
03 06.11.12 150 (ЮВ) 10 км    ясно 
+6.8 +6.3 97 +6  1014.8  -1.1  721  282  +6.8        сухая 
06 06.11.12 160 (Ю) >10 км    ясно 
+11.3 +9.1 86 +11  1013.6  -0.3  720  277           
09 06.11.12 140 (ЮВ) >10 км    ясно 
+17.7 +9.3 58 +19  1011  -1.3  719  271           
12 06.11.12 110 (В) >10 км    3/0 верхняя 
[Ci fib]
+19.8 +8 46 +20  1009.4  -1.1  719  269           
15 06.11.12 140 (ЮВ) >10 км    4/0 верхняя 
[Ci fib]
+11.6 +8.2 80 +11  1010.9  719  276    +20.5       
18 06.11.12 180 (Ю) >10 км    8/0 средняя 
[Ac trans]
+12.6 +7.4 71 +12  1011  0.2  719  276           
21 06.11.12 250 (З) >10 км    10/3 600 м кучево-дожд., средняя 
[Cb calv|Ac und]
+14.5 +8.3 66 +15  1011.6  719  274           
00 07.11.12 280 (З) 5{10}  >10 км  в посл. час ливневой дождь  10/4 600 м кучево-дожд., средняя 
[Cb calv|Ac und]
+14 +10.7 80 +16  1011.4  -0.3  719  274           
03 07.11.12 300 (СЗ) >10 км  слаб. ливневой дождь  10/6 300 м кучево-дожд., средняя 
[Cb cap|Ac und]
+12 +10.9 93 +14  1013.2  1.4  720  276  +11.1    0.4     
06 07.11.12 290 (З) 4{12}  >10 км  в посл. час ливневой дождь  10/4 200 м кучево-дожд., средняя 
[Cb calv|Ac trans]
+11.5 +10.3 92 +13  1014.6  1.3  721  277           
09 07.11.12 290 (З) 4000 м  слаб. ливневой дождь  10/6 240 м кучево-дожд., средняя 
[Cb cap|Ac und]
+10.4 +9.5 94 +11  1015.5  0.6  722  278           
12 07.11.12 340 (С) 4000 м  слаб. ливневой дождь  10/6 120 м кучево-дожд., средняя 
[Cb cap|Ac und]
+9.3 +8.8 97 +9    -0.2  721  279           
15 07.11.12 330 (СЗ) 4000 м  слаб. ливневой дождь  10/6 100 м кучево-дожд., средняя 
[Cb cap|Ac und]
+7.1 +6.7 97 +6  1016.5  0.6  722  282    +11.9     
18 07.11.12 330 (СЗ) 4000 м  слаб. ливневой дождь  10/8 120 м кучево-дожд., средняя 
[Cb cap|Ac und]
+5.3 +4.8 97 +4  1017.5  0.6  722  285           
00 08.11.12 010 (С) 10 км  слаб. ливневой дождь  10/6 300 м кучево-дожд., средняя 
[Cb cap|Ac und]
+4.8 +4.1 95 +4  1018.5  0.8  723  286           
03 08.11.12 180 (Ю) >10 км  {ливн. осадки}  10/5 300 м кучево-дожд., средняя 
[Cb calv|Ac und]
+4.3 +3.9 97 +5  1019.6  724  286  +4.3       
09 08.11.12 250 (З) >10 км    8/5 600 м средняя 
[Sc|Ac trans]
+9.9 +3.7 65 +9  1019.9  0.2  725  281           
12 08.11.12 300 (СЗ) >10 км    8/3 300 м верхняя 
[Sc diur, vesp|Ci fib]
+10.2 +3.3 62 +10  1019.1  -0.7  724  281           
15 08.11.12 300 (СЗ) >10 км    8/0 верхняя 
[Ci sp]
+6.6 +2.8 77 +6  1020.5  0.7  725  285    +10.8       
18 08.11.12 240 (ЮЗ) >10 км    6/0 средняя 
[Ac trans]
+2.6 +1.4 92 +2  1021.7  0.4  725  289           
21 08.11.12 300 (СЗ) >10 км    8/0 средняя 
[Ac trans]
+5.5 +3.2 85 +5  1021  -0.2  725  286           
00 09.11.12 350 (С) >10 км    10/0 средняя 
[Ac und]
+5.2 +3.7 90 +6  1020.9  -0.2  725  286           
03 09.11.12 140 (ЮВ) >10 км    10/4 600 м средняя 
[Sc|Ac und]
+4.5 +3.8 95 +4  1021.1  -0.1  725  287  +2.5        влажная 
06 09.11.12 090 (В) 10 км    10/3 600 м средняя 
[Sc|Ac und]
+5.6 +3.6 87 +5  1020.7  -0.2  725  285           
09 09.11.12 110 (В) 10 км    10/8 270 м средняя 
[St|Ac und]
+6.8 +4.8 87 +6  1019.4  -0.9  724  284           
12 09.11.12 090 (В) 10 км    10/8 300 м средняя 
[St|Ac und]
+7.4 +5.3 86 +6  1017.9  -1.3  723  283           
18 09.11.12 090 (В) >10 км    10/3 600 м средняя 
[Sc|Ac und]
+6.4 +5.6 95 +5  1016.2  -1.1  722  283           
21 09.11.12 090 (В) 1000 м  слаб. ливневой дождь  10/8 360 м кучево-дожд., средняя 
[Cb cap|Ac und]
+6.7 +6.3 97 +6  1015.6  -0.5  721  282           
00 10.11.12 090 (В) 0500 м  слаб. ливневой дождь{туман}  ?/?  
+7   1014.9  -0.5  721             
03 10.11.12 100 (В) 1000 м  слаб. ливневой дождь{туман}  10/8 100 м кучево-дожд., средняя 
[Cb cap|Ac und]
+7.1 +6.8 98 +5  1015.1  -0.1  721  282  +6.4       
06 10.11.12 090 (В) 4000 м  дымка{ливн. осадки, туман}  10/8 120 м средняя 
[Sc diur, vesp|Ac und]
+7.1 +6.8 98 +5  1015.8  0.7  721  282           
09 10.11.12 080 (В) 4000 м  дымка  10/6 270 м средняя 
[Sc diur, vesp|Ac und]
+7.7 +6.1 90 +6  1016.1  0.4  722  282           
12 10.11.12 080 (В) 10 км  слаб. ливневой дождь  10/5 300 м кучево-дожд., средняя 
[Cb cap|Ac und]
+5.5 +2.2 79 +3  1017.5  0.9  722  285           
15 10.11.12 070 (В) 10 км  слаб. ливневой дождь  10/5 600 м кучево-дожд., средняя 
[Cb cap|Ac und]
+4.8 +4.1 95 +3  1020.4  2.7  724  286    +7.8     
18 10.11.12 090 (В) 10 км  слаб. ливневой дождь  10/8 210 м кучево-дожд., средняя 
[Cb cap|Ac und]
+4.7 +4 95 +3  1022.4  1.8  726  287           
21 10.11.12 080 (В) 3000 м  дымка{ливн. осадки}  10/8 210 м кучево-дожд., средняя 
[Cb calv|Ac und]
+5 +4.7 98 +3  1023  0.6  726  287           
00 11.11.12 070 (В) 3000 м  дымка{ливн. осадки}  10/8 180 м средняя 
[St|Ac und]
+4.9 +4.5 97 +3  1024.2  1.1  727  287           
03 11.11.12 070 (В) 10 км  {ливн. осадки}  10/6 600 м кучево-дожд., средняя 
[Cb calv|Ac und]
+4.8 +3.8 93 +3  1025.6  1.4  728  288  +4.1       
06 11.11.12 070 (В) 8-11  2000 м  дымка{ливн. осадки}  10/8 100 м кучево-дожд., средняя 
[Cb calv|Ac und]
+5.4 +5 97 +2  1027.2  1.6  729  287           
09 11.11.12 070 (В) 6{11}  0100 м  туман  ?/?  
+4.5 +4.5 100 +2  1027.8  0.5  730  288           
12 11.11.12 070 (В) 8-11{12}  0700 м  туман  ?/?  
+3.7 +3.4 98 1028.7  0.6  730  290           
15 11.11.12 080 (В) 9-11{12}  3000 м  дымка{туман}  10/10 200 м 
[St]
+2.1 +1.8 98 -2  1030.1  731  292    +5.4  0.6     
18 11.11.12 080 (В) 7{12}  >10 км  {туман}  10/8 500 м средняя 
[Sc|Ac und]
+1.3 -0.5 88 -2  1030.9  0.6  731  293           
21 11.11.12 080 (В) 7{11}  >10 км    10/8 400 м средняя 
[Sc|Ac und]
-0.3 -3 82 -4  1030.9  -0.3  731  295           
00 12.11.12 100 (В) 8-11{12}  >10 км    10/8 420 м средняя 
[Sc|Ac und]
+0.2 -2.1 85 -4  1030.3  -0.5  731  294           
03 12.11.12 090 (В) >10 км    10/8 300 м средняя 
[Sc|Ac und]
-0.3 -1.5 91 -4  1030.7  0.3  731  295  -0.6        влажная 
06 12.11.12 100 (В) 8-10{11}  >10 км    10/10 300 м 
[St]
+1.5 +0.3 92 -2  1031  0.6  731  293           
09 12.11.12 100 (В) 8-15{15}  >10 км    10/10 330 м 
[Sc]
+4.5 +2.2 85 +1  1029.4  -0.9  731  289           
12 12.11.12 110 (В) 9-13{15}  >10 км    10/10 330 м 
[Sc]
+4.5 +2.6 87 +1  1029.3  -0.2  731  289           
15 12.11.12 120 (ЮВ) >10 км    10/10 300 м 
[St]
+4.6 +3.1 90 +1  1029.1  0.1  730  289    +5.1       
18 12.11.12 120 (ЮВ) 11-15{16}  >10 км    10/10 330 м 
[St]
+5.1 +3.4 89 +1  1028.3  -0.7  730  288           
21 12.11.12 120 (ЮВ) 9-11{16}  >10 км    10/10 270 м 
[St]
+4.8 +3.2 89 +1  1028.3  730  288           
00 13.11.12 130 (ЮВ) 8-13{15}  >10 км    10/10 270 м 
[St]
+4.5 +2.9 89 +1  1027.9  -0.5  730  289           
03 13.11.12 140 (ЮВ) 10  >10 км    10/10 200 м 
[St]
+3.9 +2.7 92 1027.1  -0.8  729  289  +3.9        влажная 
06 13.11.12 140 (ЮВ) 10-13  >10 км    10/8 150 м средняя 
[St|Ac und]
+3.8 +3.1 95 1026.3  -0.8  728  289  +3.6         
09 13.11.12 150 (ЮВ) 7{14}  >10 км    8/8 270 м 
[St]
+6.9 +4.3 84 +4  1024.6  -1  728  285           
12 13.11.12 120 (ЮВ) 5{10}  >10 км    8/8 360 м 
[St]
+7.2 +4.6 84 +5  1024  -0.5  727  285           
15 13.11.12 150 (ЮВ) 10 км    10/10 150 м 
[St]
+4.7 +3.9 94 +2  1024.2  -0.3  727  287    +8.4       
18 13.11.12 190 (Ю) 0200 м  туман  ?/?  
+3.6 +3.1 97 +2  1022.8  -1.6  726  288           
21 13.11.12 260 (З) 10 км  {туман}  ясно 
+4.4 +4 97 +3  1021.3  -1.2  725  287           
00 14.11.12 290 (З) 1000 м  дымка{туман}  10/10 100 м 
[St]
+5.8 +5.5 98 +4  1021.2  -0.1  725  285           
03 14.11.12 280 (З) 1000 м  дымка{туман}  10/10 50 м 
[St]
+5.4 +5.1 98 +4  1021.1  -0.2  725  286  +1.7         
06 14.11.12 280 (З) 0100 м  слаб. морось{туман}  ?/?  
+4.6 +4.3 98 +3  1021.8  0.5  725  287           
09 14.11.12 310 (СЗ) 2000 м  слаб. морось{туман}  10/10 120 м 
[St]
+4.4 +4.1 98 +2  1022.2  0.3  725  287           
12 14.11.12 310 (СЗ) 0700 м  туман{морось}  ?/?  
+3.3 +2.9 97 +1  1023.7  1.3  726  289           
15 14.11.12 310 (СЗ) 1100 м  слаб. морось{туман}  10/10 100 м 
[St]
+3.5 +3.2 98 +2  1025  1.3  727  289    +5.4  0.8     
18 14.11.12 340 (С) 2000 м  слаб. морось{туман}  10/10 150 м 
[St]
+3.8 +3.5 98 +3  1026.2  1.2  728  289           
21 14.11.12 020 (С) 0400 м  слаб. морось{туман}  ?/?  
+2.4 +2.1 98 +2  1027.1  0.6  729  291           
00 15.11.12 320 (СЗ) 4000 м  дымка{морось, туман}  10/6 210 м 
[St]
+1.7 +1.4 98 +1  1027.7  0.4  729  292           
03 15.11.12 270 (З) 4000 м    5/3 600 м средняя 
[Sc|Ac trans]
+0.4 -0.3 95 +1  1027.8  -0.2  729  293  +0.2    0.7    влажная 
06 15.11.12 300 (СЗ) >10 км    5/3 600 м верхняя 
[Sc|Ci fib]
+2.2 -0.2 84 +3  1028.5  730  292  -0.8         
09 15.11.12 300 (СЗ) >10 км    5/3 600 м верхняя 
[Sc|Ci fib]
+5.5 -0.4 66 +4  1026.9  -0.8  729  288           
12 15.11.12 290 (З) >10 км    5/0 верхняя 
[Ci fib]
+7.2 +0.2 61 +6  1024.8  -1.7  728  286           
15 15.11.12 290 (З) >10 км    3/0 верхняя 
[Ci fib]
+3.2 +0.6 83 +2  1025.9  0.3  728  290    +7.4       
18 15.11.12 260 (З) >10 км    ясно 
+0.6 -0.3 94 1026.2  -0.3  728  293           
21 15.11.12 230 (ЮЗ) >10 км    3/0 средняя 
[Ac trans]
+1.4 -0.2 89 -1  1025.2  -0.8  727  291           
00 16.11.12 250 (З) >10 км    3/0 средняя 
[Ac trans]
+4.3 +1.7 83 +3  1023.9  -0.7  727  288           
03 16.11.12 260 (З) >10 км    8/5 600 м средняя 
[Sc|Ac trans]
+6.3 +4.3 87 +5  1023.3  0.1  727  285  -0.7        влажная 
06 16.11.12 260 (З) >10 км    10/10 840 м 
[Sc]
+7.5 +5.1 85 +6  1023.6  0.5  727  284           
09 16.11.12 270 (З) 5-11{11}  >10 км    10/5 600 м средняя 
[Sc|Ac und]
+9.1 +5.3 77 +8  1023  -0.3  727  282           
12 16.11.12 280 (З) 6-10{11}  10 км    10/6 540 м средняя 
[Sc|Ac und]
+7.9 +5.2 83 +6  1023.4  0.2  727  284           
15 16.11.12 270 (З) >10 км    8/4 720 м средняя 
[Sc|Ac trans]
+5.6 +3.8 88 +4  1025  728  287    +9.2       
18 16.11.12 250 (З) >10 км    3/0 средняя 
[Ac trans]
+2.9 +2 94 +2  1026.7  1.1  728  290           
21 16.11.12 260 (З) 4000 м  дымка  10/10 270 м 
[St]
+3.3 +2.6 95 +1  1026.9  0.3  729  290           
00 17.11.12 290 (З) 1400 м  дымка  10/10 100 м 
[St]
+2.4 +1.9 96 +1  1027  729  291           
03 17.11.12 360 (С) 1200 м  дымка{туман}  10/10 50 м 
[St]
+2.6 +2.2 97 +3  1027.1  0.1  729  290  +2.3         
06 17.11.12 160 (Ю) 0200 м  туман  ?/?  
+2.4 +2 97 +1  1027.5  0.4  729  291           
09 17.11.12 190 (Ю) 2500 м  дымка{туман}  10/6 180 м средняя 
[St|Ac und]
+4.9 +4 94 +5  1026.6  -0.4  729  288           
12 17.11.12 060 (СВ) 2500 м  дымка{туман}  10/10 180 м 
[Sc]
+4.7 +3.6 93 +4  1025.9  -0.7  728  288           
15 17.11.12 090 (В) 0100 м  туман  ?/?  
+2.4 +2 97 +2  1027.4  0.9  729  291    +5.8       
18 17.11.12 050 (СВ) 0100 м  туман  ?/?  
+1.3 +1 98 -1  1027.3  -0.3  729  292           
21 17.11.12 060 (СВ) 0100 м  туман  ?/?  
+0.1 -0.2 98 -2  1027.5  0.1  729  293           
00 18.11.12 070 (В) 0100 м  туман  ?/?  
-0.8 -1 99 -3  1027.7  0.1  729  295           
03 18.11.12 090 (В) 0100 м  слаб. переохл. морось (гололёд){туман}  ?/?  
-0.1 -0.3 99 -3  1027.9  0.4  729  294  -0.9    0.0    влажная 
06 18.11.12 120 (ЮВ) 0100 м  слаб. переохл. морось (гололёд){туман} [диам. гололёда 1 мм]  ?/?  
+1.2 +0.9 98 -2  1028.2  0.6  729  292      0.0     
09 18.11.12 130 (ЮВ) 0100 м  туман  ?/?  
+1.6 +1.3 98 -1  1027.4  -0.7  729  292           
12 18.11.12 100 (В) 1100 м  дымка{морось, туман}  10/10 60 м 
[St]
+1.4 +1.2 99 -1  1027.1  -0.2  729  292           
15 18.11.12 110 (В) 0100 м  туман  ?/?  
+0.3 +0.1 99 -3  1027.6  0.2  729  293    +1.9  0.4     
18 18.11.12 110 (В) 6{10}  0100 м  туман  ?/?  
-0 -0.2 99 -3  1027.1  -0.5  728  293           
21 18.11.12 130 (ЮВ) 0100 м  туман  ?/?  
-0.2 -0.4 99 -4  1026.6  -0.5  728  294           
00 19.11.12 130 (ЮВ) 8-14  10 км  {туман}  9/9 240 м 
[St]
+0.8 +0.6 99 -3  1026  -0.4  728  292           
03 19.11.12 130 (ЮВ) >10 км    8/8 300 м 
[St]
+1.9 +1.6 98 -2  1025.9  0.1  728  291  -0.3        влажная 
06 19.11.12 130 (ЮВ) 7-11{11}  >10 км    8/6 210 м средняя 
[St|Ac trans]
+3 +2.1 94 1026.1  0.4  728  290           
09 19.11.12 130 (ЮВ) 9-12{14}  >10 км    8/6 420 м средняя 
[Sc|Ac trans]
+6.2 +3.7 84 +3  1025.1  0.4  728  286           
12 19.11.12 130 (ЮВ) 11-16{16}  >10 км    8/6 480 м средняя 
[Sc diur, vesp|Ac trans]
+7.1 +3.8 79 +4  1024.8  -0.2  728  285           
15 19.11.12 120 (ЮВ) >10 км    10/8 360 м средняя 
[Sc diur, vesp|Ac und]
+6.4 +4.5 88 +4  1025.6  0.6  728  286    +7.4       
18 19.11.12 120 (ЮВ) >10 км    10/8 420 м средняя 
[Sc|Ac und]
+5.6 +4.8 95 +3  1026  0.3  728  287           
21 19.11.12 120 (ЮВ) 7{10}  >10 км    10/8 400 м средняя 
[Sc diur, vesp|Ac und]
+5.7 +4.7 93 +3  1025.6  -0.4  728  287           
00 20.11.12 120 (ЮВ) 7-11{11}  >10 км    10/8 300 м средняя 
[St|Ac und]
+5.2 +4.1 93 +2  1026  0.3  728  287           
03 20.11.12 110 (В) >10 км    10/10 200 м 
[St]
+5.2 +4.6 96 +3  1026.4  0.3  729  287  +5        влажная 
06 20.11.12 110 (В) 7-10  >10 км  в посл. час морось  10/10 150 м 
[St]
+5.6 +4.8 95 +3  1026.9  0.6  729  287           
09 20.11.12 110 (В) 7{11}  >10 км    10/10 500 м 
[Sc]
+7.5 +4.3 80 +5  1026.2  -0.3  729  285           
12 20.11.12 100 (В) 6{10}  >10 км    10/10 630 м 
[Sc]
+7.3 +4.9 85 +5  1026.3  729  285           
15 20.11.12 090 (В) 2000 м  дымка  10/10 50 м 
[St]
+6.2 +5.7 97 +4  1027.3  0.7  729  286    +7.6  0.0     
18 20.11.12 090 (В) 7-10{10}  0400 м  туман{дождь}  ?/?  
+6.1 +5.8 98 +3  1027  -0.3  729  286           
21 20.11.12 090 (В) 6{11}  0200 м  слаб. морось{туман}  ?/?  
+5.9 +5.6 98 +4  1026.8  -0.2  729  287           
00 21.11.12 090 (В) 7-10{10}  0100 м  морось{туман}  ?/?  
+5.5 +5.2 98 +3  1027  0.1  729  287           
03 21.11.12 100 (В) 0200 м  слаб. морось{туман}  ?/?  
+5.1 +4.9 99 +2  1027.1  729  288  +5.1      влажная 
06 21.11.12 100 (В) 9-12{13}  0800 м  слаб. морось{туман}  ?/?  
+4.9 +4.6 98 +1  1028.1  0.9  730  288  +4.9         
09 21.11.12 100 (В) 9-12{13}  4000 м  слаб. морось{туман}  10/10 100 м 
[St]
+4.8 +4.5 98 +1  1027.6  -0.5  729  288           
12 21.11.12 100 (В) 8-12{12}  10 км  {морось, туман}  10/10 200 м 
[St]
+5.2 +4.3 94 +2  1027.6  0.1  729  288           
15 21.11.12 100 (В) 10 км    10/10 240 м 
[St]
+5 +4.1 94 +2  1028  0.3  730  288    +5.4  0.0     
18 21.11.12 100 (В) 9-10{13}  >10 км    10/10 240 м 
[St]
+4.7 +3.6 93 +1  1027.9  0.1  730  288           
21 21.11.12 100 (В) 8-12{14}  10 км    10/10 180 м 
[St]
+3.7 +2.8 94 1028  0.1  730  290           
00 22.11.12 100 (В) 8-11{13}  >10 км    10/10 150 м 
[St]
+3.2 +2.4 95 1028  -0.2  729  290           
03 22.11.12 090 (В) >10 км    8/5 600 м средняя 
[Sc|Ac trans]
+1.7 +0.9 94 -2  1028.2  729  292  +1.7    0.0    влажная 
06 22.11.12 090 (В) 8{11}  >10 км    4/3 200 м средняя 
[St|Ac trans]
+1.9 +0.8 92 -2  1029.3  730  292  +0.8         
09 22.11.12 110 (В) 11-14{15}  >10 км    6/6 420 м 
[St]
+5.9 +0.6 69 +2  1027.9  -0.5  730  288           
12 22.11.12 100 (В) 10-13{15}  >10 км    8/8 500 м 
[Sc]
+4.7 -0.5 69 +1  1028.1  730  289           
15 22.11.12 100 (В) 40-14  >10 км    10/5 700 м средняя 
[Sc|Ac und]
+3.8 -0.1 76 -4  1028.9  0.5  730  290           
18 22.11.12 100 (В) 13-16{18}  >10 км    9/5 600 м средняя 
[Sc|Ac trans]
+3.3 -0.2 78 -1  1027.9  -1.1  729  290           
21 22.11.12 100 (В) 11-14{16}  >10 км    8/8 300 м 
[St]
+1.7 +0.7 93 -3  1028.3  0.1  729  292           
00 23.11.12 100 (В) 13-16{16}  >10 км    8/8 300 м 
[St]
+1 -0.2 92 -4  1028  -0.5  729  293           
03 23.11.12 100 (В) >10 км    3/3 300 м 
[St]
+0.4 -0.3 95 -4  1028.2  0.1  729  293  +0.4        влажная 
06 23.11.12 090 (В) 6{13}  >10 км    8/4 300 м средняя 
[Sc|Ac trans]
+1.3 -0.1 90 -2  1028.2  0.2  729  292           
09 23.11.12 100 (В) 11-14{15}  >10 км    8/6 600 м средняя 
[Sc|Ac trans]
+4.6 +0.2 73 +1  1026.3  0.2  728  289           
12 23.11.12 110 (В) 9-13{15}  >10 км    10/8 450 м средняя 
[Sc|Ac und]
+3.6 +1 83 1026.4  0.1  728  289           
15 23.11.12 120 (ЮВ) 4{13}  >10 км    4/4 300 м 
[Sc]
+2.3 +1.1 92 1026.8  0.2  728  291    +4.9       
18 23.11.12 120 (ЮВ) >10 км    5/3 600 м средняя 
[Sc|Ac trans]
+1 +0.5 96 -1  1025.8  -1.2  728  292           
21 23.11.12 120 (ЮВ) >10 км    5/0 средняя 
[Ac trans]
+0.5 +0.1 97 -2  1025.1  -0.8  727  292           
00 24.11.12 120 (ЮВ) >10 км    ясно 
-0.3 -0.9 96 -3  1024.3  -0.8  726  293           
03 24.11.12 120 (ЮВ) >10 км    10/10 100 м 
[St]
+1.3 +0.7 96 1023.3  -0.7  726  291  -0.4        влажная 
06 24.11.12 120 (ЮВ) 0200 м  туман  ?/?  
+3.2 +2.8 97 +1  1022.9  726  289           
09 24.11.12 120 (ЮВ) 10 км  {туман}  10/10 330 м 
[St]
+4.6 +2.6 87 +2  1022  -0.6  725  287           
12 24.11.12 100 (В) >10 км  {туман}  10/10 420 м 
[Sc]
+5 +2.3 83 +3  1021.4  -0.4  725  286           
15 24.11.12 130 (ЮВ) >10 км    10/10 540 м 
[Sc]
+4.2 +2.2 87 +2  1022.3  0.7  726  288    +5.3       
18 24.11.12 120 (ЮВ) >10 км    4/4 600 м 
+1.3 +0.6 95   0.1        110     
21 24.11.12 110 (В) 10 км    10/10 300 м 
[St]
+2.9 +1.7 92 +2  1022.5  725  289           
00 25.11.12 110 (В) 0200 м  туман  ?/?  
+3.6 +3.3 98 +2  1021.8  -0.5  725  288           
03 25.11.12 120 (ЮВ) 2000 м  дымка{туман}  10/10 100 м 
[St]
+3.8 +3.5 98 +2  1021.8  725  288  +0.9         
06 25.11.12 100 (В) 10 км  {туман}  10/10 180 м 
[St]
+4.1 +3.4 95 +2  1022.2  0.4  725  287           
09 25.11.12 080 (В) 10 км    10/8 300 м средняя 
[St|Ac und]
+5.2 +3.7 90 +3  1021.5  -0.4  725  286           
12 25.11.12 080 (В) >10 км    10/6 480 м средняя 
[Sc|Ac und]
+5.2 +3.8 91 +4  1021.1  -0.4  725  286           
15 25.11.12 090 (В) 10 км    10/10 180 м 
[St]
+4.2 +3.7 97 +2  1021.8  0.5  725  287    +5.6       
18 25.11.12 120 (ЮВ) 10 км    10/10 330 м 
[St]
+4.1 +3.1 93 +3  1021.8  725  287           
21 25.11.12 120 (ЮВ) 10 км    10/10 210 м 
[St]
+3.4 +2.6 94 +3  1021.2  -0.6  725  288           
00 26.11.12 120 (ЮВ) 10 км    10/6 300 м средняя 
[St|Ac und]
+2.6 +2.2 97 +3  1021.4  725  289           
03 26.11.12 120 (ЮВ) 3000 м  дымка  10/3 300 м средняя 
[Sc|Ac und]
+2.7 +2.3 97 +2  1021.4  725  289           
06 26.11.12 310 (СЗ) 4000 м  дымка  8/5 300 м средняя 
[Sc|Ac trans]
+4.8 +3.7 93 +4  1021.6  0.6  725  287  +1.6         
09 26.11.12 270 (З) 4000 м  дымка  10/8 210 м средняя 
[Sc|Ac und]
+5.1 +3.9 92 +3  1021.6  725  286           
12 26.11.12 270 (З) 3000 м  дымка  10/10 120 м 
[St]
+4.6 +3.9 95 +3  1021.1  -0.6  725  287           
15 26.11.12 240 (ЮЗ) 10 км    8/5 600 м средняя 
[Sc|Ac trans]
+2.6 +1.4 92 +2  1021.6  0.1  725  289    +5.8       
18 26.11.12 230 (ЮЗ) >10 км    9/5 630 м средняя 
[Sc|Ac trans]
+4.3 +2.9 91 +3  1021.1  0.1  725  287           
21 26.11.12 260 (З) 10 км    10/8 420 м средняя 
[Sc|Ac und]
+4.8 +2.8 87 +2  1020.1  -0.8  724  286           
00 27.11.12 280 (З) 7-12{13}  10 км    9/6 330 м средняя 
[St|Ac trans]
+2.1 +0.2 87 -1  1021.4  0.7  725  290           
03 27.11.12 260 (З) >10 км    5/5 600 м 
+0.3 -1.2 90 -3  1022.1  0.3  725  292  +0.1        сухая 
06 27.11.12 280 (З) 10 км    10/8 270 м средняя 
[St|Ac und]
+1 -0.5 90 -1  1023  726  291  +0         
09 27.11.12 260 (З) 10 км    10/8 270 м средняя 
[St|Ac und]
+2.5 +0.6 87 1022.1  -0.6  725  289           
12 27.11.12 470 () 7-10{11}  10 км    9/8 420 м средняя 
[Sc|Ac trans]
+2.9 +0.4 84 1021.5  -0.5  725  289           
15 27.11.12 270 (З) 5{10}  >10 км    9/9 450 м 
[Sc]
+1.8 -0 88 -1  1022.4  0.6  725  290    +4       
18 27.11.12 290 (З) 10 км    10/10 300 м 
[St]
+1.4 +0.1 91 1023.4  0.8  726  291           
21 27.11.12 220 (ЮЗ) >10 км    10/10 600 м 
[Sc]
+1.5 +0.1 90 +1  1023.5  0.2  726  291           
00 28.11.12 250 (З) >10 км    10/8 700 м средняя 
[Sc|Ac und]
+2.5 +1 90 +3  1023.2  0.1  726  290           
03 28.11.12 210 (ЮЗ) >10 км    6/0 средняя 
[Ac trans]
+1.8 +0.4 91 +1  1022.9  -0.4  726  290  +0.8        сухая 
06 28.11.12 210 (ЮЗ) >10 км    6/3 600 м средняя 
[Sc|Ac trans]
+2.1 +1 93 +1  1022.9  0.1  726  290  +0         
09 28.11.12 160 (Ю) >10 км    3/0 
+9.3 +2.6 63 +10    -0.7             
12 28.11.12 070 (В) >10 км    3/0 средняя 
[Sc|Ac trans]
+10.1 +2.7 60 +11  1019.5  -1  724  281           
15 28.11.12 170 (Ю) >10 км    3/0 верхняя 
[Ci fib]
+4.6 +1.1 78 +3  1020.6  724  287    +10.5       
18 28.11.12 170 (Ю) >10 км    4/0 верхняя 
[Ci fib]
+3.6 +1.7 87 +3  1020.1  -0.6  724  288           
21 28.11.12 190 (Ю) >10 км    3/0 верхняя 
[Ci fib]
+3.3 +1.2 86 +2  1020  -0.2  724  288           
00 29.11.12 190 (Ю) >10 км    6/0 верхняя 
[Ci]
+4.3 +1.6 83 +3  1019.2  -0.5  723  287           
03 29.11.12 180 (Ю) >10 км    8/0 верхняя 
[Ci fib]
+4.3 +0.8 78 +3  1019  -0.3  723  287  +2.9        влажная 
06 29.11.12 180 (Ю) >10 км    9/0 верхняя 
[Ci fib]
+6.8 +2 71 +6  1019.2  0.8  724  284           
09 29.11.12 140 (ЮВ) >10 км    6/0 верхняя 
[Sc diur, vesp|Ci ing]
+13.9 +2.3 45 +14    -1             
12 29.11.12 150 (ЮВ) >10 км    5/5 600 м средняя 
[Ac trans]
+14.5 -1.5 33 +14  1015.9  -0.7  722  276           
15 29.11.12 140 (ЮВ) >10 км    3/0 средняя 
[Ac trans]
+8.7 +0.4 56 +8  1017.5    723  282    +15.7       
18 29.11.12 160 (Ю) 4{10}  >10 км    ясно 
+10.2 -4.7 35 +9  1016.9  -0.3  723  281           
21 29.11.12 170 (Ю) 3{10}  >10 км    ясно 
+8.1 -3.5 44 +7  1017.1  -0.2  722  283           
00 30.11.12 140 (ЮВ) >10 км    ясно 
+8.3 -5 38 +7  1017  722  283           
03 30.11.12 190 (Ю) >10 км    3/0 средняя 
[Ac trans]
+6.6 -5.8 41 +6  1017.5  0.1  722  285  +6.3        сухая 
06 30.11.12 190 (Ю) >10 км    6/0 средняя, верхняя 
[Ac trans|Ci fib]
+10.1 -5.2 34 +10  1018.1  1.2  723  282  +5         
09 30.11.12 130 (ЮВ) >10 км    6/0 средняя, верхняя 
[Ac trans|Ci fib]
+15.7 -5 24 +16  1016.5  -0.5  723  276           
12 30.11.12 130 (ЮВ) >10 км    3/0 средняя, верхняя 
[Ac trans|Ci fib]
+15.9 -4.5 24 +16  1016.3  -0.2  723  276           
15 30.11.12 140 (ЮВ) >10 км    3/0 средняя 
[Ac trans]
+9.3 -4.6 37 +9  1018.6  724  282    +16.7       
18 30.11.12 140 (ЮВ) >10 км    3/0 верхняя 
[Ci fib]
+5.3 -1.2 63 +4  1019.5  0.1  724  286           
21 30.11.12 160 (Ю) >10 км    3/0 верхняя 
[Ci fib]
+6.4 -2.2 54 +5  1019.3  0.1  724  285           
00 01.12.12 220 (ЮЗ) >10 км    6/0 верхняя 
[Ci fib]
+7.1 -4 45 +7  1019.5  0.3  724  285           
03 01.12.12 320 (СЗ) >10 км    10/0 средняя 
[Ac und]
+11.1 -7.6 26 +11  1019.4  0.5  724  281  +3.4        сухая 
06 01.12.12 110 (В) >10 км    6/0 средняя 
[Ac trans]
+12.8 -4.5 30 +14  1019.4  0.4  725  279           
09 01.12.12 110 (В) >10 км    3/0 верхняя 
[Ci fib]
+16.7 -4.4 23 +18  1017.8  -0.9  724  275           
12 01.12.12 100 (В) >10 км    4/0 верхняя 
[Ci fib]
+15.2 -2.8 29 +16  1016.9  -1.1  723  276           
15 01.12.12 140 (ЮВ) >10 км    4/0 средняя, верхняя 
[Ac trans|Ci fib]
+7.6 +0.1 59 +8  1018.2  0.1  723  283    +17       
18 01.12.12 180 (Ю) >10 км    10/0 средняя 
[Ac und]
+10.5 -0.9 45 +10  1016.7  -0.9  722  280           
21 01.12.12 140 (ЮВ) >10 км    4/0 средняя 
[Ac trans]
+10 -3.5 38 +9  1016.4  -0.4  722  281           
00 02.12.12 200 (Ю) >10 км    10/0 средняя 
[Ac und]
+12.2 -4.8 30 +12  1015.8  -0.2  722  279           
03 02.12.12 300 (СЗ) >10 км    8/0 средняя 
[Ac trans]
+14.8 -3.8 27 +15  1015.2  -0.1  722  276  +7.7        сухая 
06 02.12.12 300 (СЗ) >10 км    9/3 600 м средняя 
[Sc|Ac trans]
+14.8 -1.4 33 +15  1016.4  1.2  723  276           
09 02.12.12 130 (ЮВ) >10 км    9/5 600 м средняя 
[Sc|Ac trans]
+14.6 +4 49 +15  1016.6  0.2  723  276           
12 02.12.12 200 (Ю) >10 км    9/3 600 м средняя 
[Sc|Ac trans]
+14.9 +4.5 50 +16  1016.3  -0.3  723  275           
Время (UTC), дата Ветер
(°,м/с) 
Видим.   Явления Облачность Т
(°С)
Тd
(°С)
f(%) Тe
(°С)
Pmin
(гПа)
dP
(гПа)
Po
(мм)
O2
(г/м3)
Тmin Tmax R s Состояние
почвы